Location: Unspecified
(0.0000°N, 0.0000°E)
Time: 19:17:46
(UTC+00:00)

Explorer 11/Cluster Stage 4 - All Passes

Search period start: 18 April 2019 00:00
Search period end: 28 April 2019 00:00
Orbit: 467 x 1260 km, 28.8° (Epoch: 17 April)

Date Brightness Start Highest point End Pass type
(mag) Time Alt. Az. Time Alt. Az. Time Alt. Az.
18 Apr - 02:20:55 10° NW 02:24:25 49° NNE 02:28:09 10° ESE night (unlit)
18 Apr - 04:09:47 10° WSW 04:12:44 21° SSW 04:16:04 10° SSE visible
18 Apr - 11:30:54 10° S 11:35:12 15° SSE 11:39:39 10° ESE daylight
18 Apr - 13:17:30 10° SW 13:25:11 45° SSE 13:32:51 10° E daylight
18 Apr - 15:06:34 10° WSW 15:14:46 64° NNW 15:22:17 10° NE daylight
18 Apr - 16:58:47 10° WNW 17:04:12 20° NNW 17:09:08 10° NNE daylight
19 Apr - 02:10:26 10° NW 02:14:00 70° NNE 02:17:45 10° ESE night (unlit)
19 Apr - 04:00:02 10° WSW 04:02:23 15° SSW 04:04:55 10° SSE visible
19 Apr - 11:19:51 10° SSW 11:24:38 18° SSE 11:29:41 10° ESE daylight
19 Apr - 13:06:40 10° SW 13:14:27 52° SSE 13:22:22 10° ENE daylight
19 Apr - 14:55:56 10° WSW 15:04:00 55° NNW 15:11:34 10° NE daylight
19 Apr - 16:48:38 10° WNW 16:53:36 18° NNW 16:58:12 10° NNE daylight
20 Apr - 00:13:35 10° N 00:15:17 12° NNE 00:16:55 10° NE night (unlit)
20 Apr - 01:59:59 10° WNW 02:03:37 83° SSW 02:07:18 10° ESE night (unlit)
20 Apr - 03:50:43 10° SW 03:52:02 11° SSW 03:53:25 10° S visible
20 Apr - 11:08:52 10° SSW 11:14:02 20° SSE 11:19:34 10° ESE daylight
20 Apr - 12:55:53 10° SW 13:03:41 60° SSE 13:11:48 10° ENE daylight
20 Apr - 14:45:23 10° WSW 14:53:15 48° NNW 15:00:47 10° NE daylight
20 Apr - 16:38:36 10° WNW 16:43:02 16° NNW 16:47:12 10° N daylight
21 Apr - 00:02:17 10° NNW 00:04:55 17° NNE 00:07:24 10° ENE night (unlit)
21 Apr - 01:49:36 10° WNW 01:53:13 58° SSW 01:56:48 10° SE night (unlit)
21 Apr - 10:57:58 10° SSW 11:03:25 22° SSE 11:09:22 10° ESE daylight
21 Apr - 12:45:09 10° SW 12:52:55 70° SSE 13:01:10 10° ENE daylight
21 Apr - 14:34:54 10° W 14:42:31 41° NNW 14:49:57 10° NE daylight
21 Apr - 16:28:43 10° NW 16:32:29 14° NNW 16:36:06 10° N daylight
21 Apr - 23:51:14 10° NNW 23:54:33 22° NNE 23:57:35 10° E night (unlit)
22 Apr - 01:39:15 10° WNW 01:42:48 41° SSW 01:46:15 10° SE night (unlit)
22 Apr - 10:47:08 10° SSW 10:52:46 26° SSE 10:59:04 10° E daylight
22 Apr - 12:34:29 10° SW 12:42:09 81° SSE 12:50:27 10° ENE daylight
22 Apr - 14:24:30 10° W 14:31:48 36° NNW 14:39:03 10° NE daylight
22 Apr - 16:19:01 10° NW 16:21:58 12° NNW 16:24:49 10° N daylight
22 Apr - 23:40:18 10° NW 23:44:11 30° NNE 23:47:35 10° E night (unlit)
23 Apr - 01:28:59 10° W 01:32:24 31° SSW 01:35:38 10° SSE night (unlit)
23 Apr - 10:36:21 10° SSW 10:42:06 29° SSE 10:48:41 10° E daylight
23 Apr - 12:23:54 10° WSW 12:31:23 88° NNW 12:39:42 10° ENE daylight
23 Apr - 14:14:12 10° W 14:21:06 31° NNW 14:28:06 10° NNE daylight
23 Apr - 16:09:45 10° NNW 16:11:29 11° NNW 16:13:11 10° N daylight
23 Apr - 23:29:27 10° NW 23:33:48 41° NNE 23:37:29 10° E night (unlit)
24 Apr - 01:18:46 10° W 01:21:58 23° SSW 01:24:58 10° SSE night (unlit)
24 Apr - 10:25:37 10° SSW 10:31:26 33° SSE 10:38:12 10° E daylight
24 Apr - 12:13:22 10° WSW 12:20:38 76° NNW 12:28:52 10° NE daylight
24 Apr - 14:03:59 10° W 14:10:26 27° NNW 14:17:04 10° NNE daylight
24 Apr - 21:31:41 10° N 21:34:18 13° NNE 21:36:42 10° NE visible
24 Apr - 23:18:38 10° NW 23:23:23 56° NNE 23:27:18 10° ESE night (unlit)
25 Apr - 01:08:40 10° WSW 01:11:31 19° SSW 01:14:12 10° SSE night (unlit)
25 Apr - 10:14:57 10° SW 10:20:46 38° SSE 10:27:40 10° E daylight
25 Apr - 12:02:55 10° WSW 12:09:55 65° NNW 12:18:00 10° NE daylight
25 Apr - 13:53:53 10° WNW 13:59:50 23° NNW 14:06:00 10° NNE daylight
25 Apr - 21:20:09 10° NNW 21:23:56 17° NNE 21:27:16 10° ENE visible
25 Apr - 23:07:52 10° NW 23:12:57 76° NNE 23:17:03 10° ESE night (unlit)
26 Apr - 00:58:41 10° WSW 01:01:06 15° SSW 01:03:21 10° S night (unlit)
26 Apr - 08:20:54 10° SSE 08:21:14 10° SSE 08:21:33 10° SSE daylight
26 Apr - 10:04:20 10° SW 10:10:05 45° SSE 10:17:05 10° ENE daylight
26 Apr - 11:52:32 10° WSW 11:59:14 54° NNW 12:07:04 10° NE daylight
26 Apr - 13:43:54 10° WNW 13:49:14 20° NNW 13:54:50 10° NNE daylight
26 Apr - 21:08:51 10° NNW 21:13:32 22° NNE 21:17:31 10° ENE visible
26 Apr - 22:57:09 10° WNW 23:02:29 83° SSW 23:06:44 10° ESE night (unlit)
27 Apr - 00:48:55 10° SW 00:50:38 12° SSW 00:52:17 10° S night (unlit)
27 Apr - 08:08:55 10° S 08:10:45 12° SSE 08:12:40 10° SE daylight
27 Apr - 09:53:46 10° SW 09:59:26 53° SSE 10:06:25 10° ENE daylight
27 Apr - 11:42:14 10° W 11:48:36 45° NNW 11:56:04 10° NE daylight
27 Apr - 13:34:04 10° WNW 13:38:43 17° NNW 13:43:34 10° NNE daylight
27 Apr - 19:12:43 10° NNE 19:13:02 10° NNE 19:13:21 10° NNE visible
27 Apr - 20:57:40 10° NNW 21:03:06 28° NNE 21:07:36 10° E visible
27 Apr - 22:46:28 10° WNW 22:51:58 65° SSW 22:56:21 10° SE night (unlit)
